Location: Aurora Center
(43.5271°N, 98.5894°W)
Time: 00:54:55
(UTC-05:00)

Courier 1B - Pass Details

Date: 20 July 2024
Orbit: 962 x 1208 km, 28.3° (Epoch: 18 June)

Event Time Altitude Azimuth Distance (km) Brightness Sun altitude
Rises 13:03:04 0° 205° (SSW) 4,096 11.0 65.6°
Reaches altitude 10° 13:08:16 10° 176° (S) 3,116 10.7 66.0°
Maximum altitude 13:10:53 12° 156° (SSE) 2,954 10.6 66.1°
Drops below altitude 10° 13:13:29 10° 136° (SE) 3,082 10.6 66.2°
Sets 13:18:32 0° 108° (ESE) 3,996 10.9 66.5°
